Time,TemperatureF,DewpointF,PressureIn,WindDirection,WindDirectionDegrees,WindSpeedMPH,WindSpeedGustMPH,Humidity,HourlyPrecipIn,Conditions,Clouds,dailyrainin,SoftwareType,DateUTC
2013-10-03 00:01:00,73.0,70.9,30.03,North,350,0.0,0.0,93,0.00,,OVC,0.00,VWS V14.00,2013-10-03 05:01:00,
2013-10-03 00:06:00,73.1,71.0,30.03,North,350,0.0,0.0,93,0.00,,OVC,0.00,VWS V14.00,2013-10-03 05:06:00,
2013-10-03 00:13:00,73.0,70.9,30.02,North,350,0.0,0.0,93,0.00,,OVC,0.00,VWS V14.00,2013-10-03 05:13:00,
2013-10-03 00:18:00,73.0,70.9,30.02,North,355,0.0,1.0,93,0.00,,OVC,0.00,VWS V14.00,2013-10-03 05:18:00,
2013-10-03 00:23:00,73.0,70.9,30.02,North,350,0.0,0.0,93,0.00,,OVC,0.00,VWS V14.00,2013-10-03 05:23:00,
2013-10-03 00:28:00,72.9,70.8,30.02,North,360,5.0,5.0,93,0.00,,OVC,0.00,VWS V14.00,2013-10-03 05:28:00,
2013-10-03 00:33:00,72.6,70.2,30.02,ENE,71,0.0,0.0,92,0.00,,OVC,0.00,VWS V14.00,2013-10-03 05:33:00,
2013-10-03 00:38:00,72.4,70.3,30.01,ENE,70,3.0,3.0,93,0.00,,OVC,0.00,VWS V14.00,2013-10-03 05:38:00,
2013-10-03 00:43:00,72.4,70.3,30.02,ENE,70,3.0,3.0,93,0.00,,OVC,0.00,VWS V14.00,2013-10-03 05:43:00,
2013-10-03 00:48:00,72.5,70.4,30.01,ENE,62,0.0,0.0,93,0.00,,OVC,0.00,VWS V14.00,2013-10-03 05:48:00,
2013-10-03 00:53:00,72.6,70.5,30.01,ENE,61,0.0,2.0,93,0.00,,OVC,0.00,VWS V14.00,2013-10-03 05:53:00,
2013-10-03 00:58:00,72.7,70.6,30.01,ENE,61,0.0,0.0,93,0.00,,OVC,0.00,VWS V14.00,2013-10-03 05:58:00,
2013-10-03 01:03:00,72.8,70.7,30.01,ENE,62,0.0,0.0,93,0.00,,OVC,0.00,VWS V14.00,2013-10-03 06:03:00,
2013-10-03 01:08:00,72.8,70.7,30.01,ENE,62,0.0,0.0,93,0.00,,OVC,0.00,VWS V14.00,2013-10-03 06:08:00,
2013-10-03 01:13:00,72.8,70.7,30.01,ENE,62,0.0,0.0,93,0.00,,OVC,0.00,VWS V14.00,2013-10-03 06:13:00,
2013-10-03 01:18:00,72.8,70.7,30.01,ENE,62,0.0,0.0,93,0.00,,OVC,0.00,VWS V14.00,2013-10-03 06:18:00,
2013-10-03 01:23:00,72.8,70.7,30.01,ENE,62,0.0,0.0,93,0.00,,OVC,0.00,VWS V14.00,2013-10-03 06:23:00,
2013-10-03 01:28:00,72.8,70.7,30.01,ENE,61,0.0,0.0,93,0.00,,OVC,0.00,VWS V14.00,2013-10-03 06:28:00,
2013-10-03 01:33:00,72.8,70.7,30.01,ENE,61,0.0,0.0,93,0.00,,OVC,0.00,VWS V14.00,2013-10-03 06:33:00,
2013-10-03 01:38:00,72.7,70.6,30.01,ENE,61,0.0,0.0,93,0.00,,OVC,0.00,VWS V14.00,2013-10-03 06:38:00,
2013-10-03 01:43:00,72.6,70.5,30.01,ENE,61,0.0,0.0,93,0.00,,OVC,0.00,VWS V14.00,2013-10-03 06:43:00,
2013-10-03 01:48:00,72.6,70.5,30.00,ENE,61,0.0,0.0,93,0.00,,OVC,0.00,VWS V14.00,2013-10-03 06:48:00,
2013-10-03 01:53:00,72.5,70.4,30.00,ENE,61,0.0,0.0,93,0.00,,OVC,0.00,VWS V14.00,2013-10-03 06:53:00,
2013-10-03 01:58:00,72.4,70.3,30.00,ENE,61,0.0,0.0,93,0.00,,OVC,0.00,VWS V14.00,2013-10-03 06:58:00,
2013-10-03 02:03:00,72.4,70.3,30.00,ENE,61,0.0,0.0,93,0.00,,OVC,0.00,VWS V14.00,2013-10-03 07:03:00,
2013-10-03 02:08:00,72.4,70.3,30.00,ENE,61,0.0,0.0,93,0.00,,OVC,0.00,VWS V14.00,2013-10-03 07:08:00,
2013-10-03 02:13:00,72.3,70.2,30.00,ENE,61,0.0,0.0,93,0.00,,OVC,0.00,VWS V14.00,2013-10-03 07:13:00,
2013-10-03 02:18:00,72.2,70.1,30.00,ENE,61,0.0,0.0,93,0.00,,OVC,0.00,VWS V14.00,2013-10-03 07:18:00,
2013-10-03 02:23:00,72.1,70.0,29.99,ENE,61,0.0,0.0,93,0.00,,OVC,0.00,VWS V14.00,2013-10-03 07:23:00,
2013-10-03 02:28:00,72.1,70.0,29.99,ENE,61,0.0,0.0,93,0.00,,OVC,0.00,VWS V14.00,2013-10-03 07:28:00,
2013-10-03 02:33:00,72.0,69.9,29.99,ENE,61,0.0,0.0,93,0.00,,OVC,0.00,VWS V14.00,2013-10-03 07:33:00,
2013-10-03 02:38:00,71.9,69.8,29.99,ENE,61,0.0,0.0,93,0.00,,OVC,0.00,VWS V14.00,2013-10-03 07:38:00,
2013-10-03 02:43:00,71.8,69.7,29.99,ENE,61,0.0,0.0,93,0.00,,OVC,0.00,VWS V14.00,2013-10-03 07:43:00,
2013-10-03 02:48:00,71.8,69.7,29.99,ENE,61,0.0,0.0,93,0.00,,OVC,0.00,VWS V14.00,2013-10-03 07:48:00,
2013-10-03 02:53:00,71.7,69.6,29.99,ENE,61,0.0,0.0,93,0.00,,OVC,0.00,VWS V14.00,2013-10-03 07:53:00,
2013-10-03 02:58:00,71.7,69.6,29.99,ENE,61,0.0,0.0,93,0.00,,OVC,0.00,VWS V14.00,2013-10-03 07:58:00,
2013-10-03 03:03:00,71.6,69.5,29.98,ENE,61,0.0,0.0,93,0.00,,OVC,0.00,VWS V14.00,2013-10-03 08:03:00,
2013-10-03 03:08:00,71.5,69.4,29.98,ENE,61,0.0,0.0,93,0.00,,OVC,0.00,VWS V14.00,2013-10-03 08:08:00,
2013-10-03 03:13:00,71.4,69.3,29.98,ENE,61,0.0,0.0,93,0.00,,OVC,0.00,VWS V14.00,2013-10-03 08:13:00,
2013-10-03 03:18:00,71.3,69.2,29.98,ENE,61,0.0,0.0,93,0.00,,OVC,0.00,VWS V14.00,2013-10-03 08:18:00,
2013-10-03 03:23:00,71.3,69.2,29.98,ENE,61,0.0,0.0,93,0.00,,OVC,0.00,VWS V14.00,2013-10-03 08:23:00,
2013-10-03 03:28:00,71.3,69.2,29.98,ENE,61,0.0,0.0,93,0.00,,OVC,0.00,VWS V14.00,2013-10-03 08:28:00,
2013-10-03 03:33:00,71.2,69.1,29.98,ENE,61,0.0,0.0,93,0.00,,OVC,0.00,VWS V14.00,2013-10-03 08:33:00,
2013-10-03 03:38:00,71.2,69.1,29.97,ENE,61,0.0,0.0,93,0.00,,OVC,0.00,VWS V14.00,2013-10-03 08:38:00,
2013-10-03 03:43:00,71.2,69.1,29.97,ENE,61,0.0,0.0,93,0.00,,OVC,0.00,VWS V14.00,2013-10-03 08:43:00,
2013-10-03 03:48:00,71.2,69.1,29.97,ENE,61,0.0,0.0,93,0.00,,OVC,0.00,VWS V14.00,2013-10-03 08:48:00,
2013-10-03 03:53:00,71.1,69.0,29.97,ENE,68,0.0,0.0,93,0.00,,OVC,0.00,VWS V14.00,2013-10-03 08:53:00,
2013-10-03 03:58:00,71.1,69.0,29.97,ENE,68,0.0,0.0,93,0.00,,OVC,0.00,VWS V14.00,2013-10-03 08:58:00,
2013-10-03 04:03:00,71.2,69.1,29.97,ENE,68,0.0,0.0,93,0.00,,OVC,0.00,VWS V14.00,2013-10-03 09:03:00,
2013-10-03 04:08:00,71.2,69.1,29.97,ENE,68,0.0,0.0,93,0.00,,OVC,0.00,VWS V14.00,2013-10-03 09:08:00,
2013-10-03 04:13:00,71.2,69.1,29.97,ENE,68,0.0,0.0,93,0.00,,OVC,0.00,VWS V14.00,2013-10-03 09:13:00,
2013-10-03 04:18:00,71.2,69.1,29.97,ENE,68,0.0,0.0,93,0.00,,OVC,0.00,VWS V14.00,2013-10-03 09:18:00,
2013-10-03 04:23:00,71.1,69.0,29.97,ENE,68,0.0,0.0,93,0.00,,OVC,0.00,VWS V14.00,2013-10-03 09:23:00,
2013-10-03 04:28:00,71.1,69.0,29.97,ENE,68,0.0,0.0,93,0.00,,OVC,0.00,VWS V14.00,2013-10-03 09:28:00,
2013-10-03 04:33:00,71.0,68.9,29.97,ENE,68,0.0,0.0,93,0.00,,OVC,0.00,VWS V14.00,2013-10-03 09:33:00,
2013-10-03 04:38:00,71.0,69.2,29.97,ENE,68,0.0,0.0,94,0.00,,OVC,0.00,VWS V14.00,2013-10-03 09:38:00,
2013-10-03 04:43:00,71.0,69.2,29.97,ENE,68,0.0,0.0,94,0.00,,OVC,0.00,VWS V14.00,2013-10-03 09:43:00,
2013-10-03 04:48:00,71.0,69.2,29.97,ENE,68,0.0,0.0,94,0.00,,OVC,0.00,VWS V14.00,2013-10-03 09:48:00,
2013-10-03 04:53:00,70.9,69.1,29.97,ENE,68,0.0,0.0,94,0.00,,OVC,0.00,VWS V14.00,2013-10-03 09:53:00,
2013-10-03 04:58:00,70.9,69.1,29.97,ENE,68,0.0,0.0,94,0.00,,OVC,0.00,VWS V14.00,2013-10-03 09:58:00,
2013-10-03 05:03:00,70.9,69.1,29.97,ENE,68,0.0,0.0,94,0.00,,OVC,0.00,VWS V14.00,2013-10-03 10:03:00,
2013-10-03 05:08:00,71.0,69.2,29.97,ENE,68,0.0,0.0,94,0.00,,OVC,0.00,VWS V14.00,2013-10-03 10:08:00,
2013-10-03 05:13:00,71.0,69.2,29.98,ENE,68,0.0,0.0,94,0.00,,OVC,0.00,VWS V14.00,2013-10-03 10:13:00,
2013-10-03 05:18:00,71.0,69.2,29.98,ENE,68,0.0,0.0,94,0.00,,OVC,0.00,VWS V14.00,2013-10-03 10:18:00,
2013-10-03 05:23:00,71.0,69.2,29.98,ENE,68,0.0,0.0,94,0.00,,OVC,0.00,VWS V14.00,2013-10-03 10:23:00,
2013-10-03 05:28:00,71.0,69.2,29.98,ENE,68,0.0,0.0,94,0.00,,OVC,0.00,VWS V14.00,2013-10-03 10:28:00,
2013-10-03 05:33:00,70.9,69.1,29.98,ENE,68,0.0,0.0,94,0.00,,OVC,0.00,VWS V14.00,2013-10-03 10:33:00,
2013-10-03 05:38:00,70.9,69.1,29.98,ENE,68,0.0,0.0,94,0.00,,OVC,0.00,VWS V14.00,2013-10-03 10:38:00,
2013-10-03 05:43:00,70.9,69.1,29.98,ENE,68,0.0,0.0,94,0.00,,OVC,0.00,VWS V14.00,2013-10-03 10:43:00,
2013-10-03 05:48:00,70.9,69.1,29.98,ENE,68,0.0,0.0,94,0.00,,OVC,0.00,VWS V14.00,2013-10-03 10:48:00,
2013-10-03 05:53:00,70.9,69.1,29.98,ENE,68,0.0,0.0,94,0.00,,OVC,0.00,VWS V14.00,2013-10-03 10:53:00,
2013-10-03 05:58:00,70.9,69.1,29.98,ENE,68,0.0,0.0,94,0.00,,OVC,0.00,VWS V14.00,2013-10-03 10:58:00,
2013-10-03 06:03:00,70.8,69.0,29.99,ENE,68,0.0,0.0,94,0.00,,OVC,0.00,VWS V14.00,2013-10-03 11:03:00,
2013-10-03 06:08:00,70.8,69.0,29.99,ENE,68,0.0,0.0,94,0.00,,OVC,0.00,VWS V14.00,2013-10-03 11:08:00,
2013-10-03 06:13:00,70.8,69.0,29.99,ENE,68,0.0,0.0,94,0.00,,OVC,0.00,VWS V14.00,2013-10-03 11:13:00,
2013-10-03 06:18:00,70.7,68.9,29.99,ENE,68,0.0,0.0,94,0.00,,OVC,0.00,VWS V14.00,2013-10-03 11:18:00,
2013-10-03 06:22:00,70.7,68.9,29.99,ENE,65,0.0,0.0,94,0.00,,OVC,0.00,VWS V14.00,2013-10-03 11:22:00,
2013-10-03 06:27:00,70.6,68.8,29.99,ENE,65,0.0,0.0,94,0.00,,OVC,0.00,VWS V14.00,2013-10-03 11:27:00,
2013-10-03 06:32:00,70.6,68.8,29.99,ENE,65,0.0,0.0,94,0.00,,OVC,0.00,VWS V14.00,2013-10-03 11:32:00,
2013-10-03 06:37:00,70.5,68.7,29.99,ENE,65,0.0,0.0,94,0.00,,OVC,0.00,VWS V14.00,2013-10-03 11:37:00,
2013-10-03 06:42:00,70.5,68.7,29.99,ENE,65,0.0,0.0,94,0.00,,OVC,0.00,VWS V14.00,2013-10-03 11:42:00,
2013-10-03 06:47:00,70.5,68.7,29.99,ENE,61,0.0,1.0,94,0.00,,OVC,0.00,VWS V14.00,2013-10-03 11:47:00,
2013-10-03 06:52:00,70.5,68.7,29.99,ENE,61,0.0,0.0,94,0.00,,OVC,0.00,VWS V14.00,2013-10-03 11:52:00,
2013-10-03 06:57:00,70.4,68.6,29.99,ENE,61,0.0,3.0,94,0.00,,OVC,0.00,VWS V14.00,2013-10-03 11:57:00,
2013-10-03 07:02:00,70.4,68.6,29.99,ENE,60,0.0,0.0,94,0.00,,OVC,0.00,VWS V14.00,2013-10-03 12:02:00,
2013-10-03 07:07:00,70.3,68.5,30.00,ENE,60,0.0,0.0,94,0.00,,OVC,0.00,VWS V14.00,2013-10-03 12:07:00,
2013-10-03 07:12:00,70.3,68.5,29.99,NNE,28,0.0,2.0,94,0.00,,OVC,0.00,VWS V14.00,2013-10-03 12:12:00,
2013-10-03 07:17:00,70.2,68.4,30.00,NNE,28,0.0,0.0,94,0.00,,OVC,0.00,VWS V14.00,2013-10-03 12:17:00,
2013-10-03 07:22:00,70.2,68.4,30.00,NE,35,0.0,1.0,94,0.00,,OVC,0.00,VWS V14.00,2013-10-03 12:22:00,
2013-10-03 07:27:00,70.2,68.4,30.00,NE,34,0.0,1.0,94,0.00,,OVC,0.00,VWS V14.00,2013-10-03 12:27:00,
2013-10-03 07:32:00,70.2,68.4,30.00,NNE,33,0.0,0.0,94,0.00,,OVC,0.00,VWS V14.00,2013-10-03 12:32:00,
2013-10-03 07:37:00,70.2,68.4,30.01,East,97,0.0,0.0,94,0.00,,OVC,0.00,VWS V14.00,2013-10-03 12:37:00,
2013-10-03 07:42:00,70.3,68.5,30.01,NE,49,0.0,0.0,94,0.00,,OVC,0.00,VWS V14.00,2013-10-03 12:42:00,
2013-10-03 07:47:00,70.3,68.5,30.01,North,350,0.0,2.0,94,0.00,,OVC,0.00,VWS V14.00,2013-10-03 12:47:00,
2013-10-03 07:52:00,70.4,68.6,30.01,North,355,0.0,0.0,94,0.00,,OVC,0.00,VWS V14.00,2013-10-03 12:52:00,
2013-10-03 07:57:00,70.4,68.6,30.01,NE,47,2.0,2.0,94,0.00,,OVC,0.00,VWS V14.00,2013-10-03 12:57:00,
2013-10-03 08:02:00,70.4,68.6,30.01,NE,47,0.0,0.0,94,0.00,,OVC,0.00,VWS V14.00,2013-10-03 13:02:00,
2013-10-03 08:07:00,70.5,68.7,30.01,NE,46,0.0,0.0,94,0.00,,OVC,0.00,VWS V14.00,2013-10-03 13:07:00,
2013-10-03 08:12:00,70.5,68.7,30.02,NNE,33,2.0,2.0,94,0.00,,OVC,0.00,VWS V14.00,2013-10-03 13:12:00,
2013-10-03 08:17:00,70.5,68.7,30.02,NE,37,1.0,2.0,94,0.00,,OVC,0.00,VWS V14.00,2013-10-03 13:17:00,
2013-10-03 08:22:00,70.6,68.8,30.02,NNE,19,2.0,4.0,94,0.00,,OVC,0.00,VWS V14.00,2013-10-03 13:22:00,
2013-10-03 08:27:00,70.7,68.9,30.02,NNE,22,0.0,1.0,94,0.00,,OVC,0.00,VWS V14.00,2013-10-03 13:27:00,
2013-10-03 08:32:00,71.0,69.2,30.02,NNE,20,0.0,0.0,94,0.00,,OVC,0.00,VWS V14.00,2013-10-03 13:32:00,
2013-10-03 08:37:00,71.4,69.6,30.03,NNE,29,0.0,0.0,94,0.00,,OVC,0.00,VWS V14.00,2013-10-03 13:37:00,
2013-10-03 08:42:00,71.8,70.0,30.03,NE,55,0.0,0.0,94,0.00,,OVC,0.00,VWS V14.00,2013-10-03 13:42:00,
2013-10-03 08:47:00,72.3,70.5,30.03,NE,55,0.0,0.0,94,0.00,,OVC,0.00,VWS V14.00,2013-10-03 13:47:00,
2013-10-03 08:52:00,72.7,70.9,30.03,NNW,333,0.0,4.0,94,0.00,,OVC,0.00,VWS V14.00,2013-10-03 13:52:00,
2013-10-03 08:57:00,73.0,71.2,30.04,NNW,348,0.0,2.0,94,0.00,,OVC,0.00,VWS V14.00,2013-10-03 13:57:00,
2013-10-03 09:02:00,73.3,71.5,30.04,East,86,0.0,0.0,94,0.00,,OVC,0.00,VWS V14.00,2013-10-03 14:02:00,
2013-10-03 09:07:00,73.9,72.1,30.04,ESE,103,0.0,0.0,94,0.00,,OVC,0.00,VWS V14.00,2013-10-03 14:07:00,
2013-10-03 09:12:00,74.3,72.5,30.04,East,83,0.0,0.0,94,0.00,,OVC,0.00,VWS V14.00,2013-10-03 14:12:00,
2013-10-03 09:17:00,74.5,72.7,30.04,ENE,59,1.0,1.0,94,0.00,,OVC,0.00,VWS V14.00,2013-10-03 14:17:00,
2013-10-03 09:22:00,74.7,72.9,30.04,East,98,0.0,1.0,94,0.00,,OVC,0.00,VWS V14.00,2013-10-03 14:22:00,
2013-10-03 09:27:00,75.2,73.4,30.04,North,5,0.0,0.0,94,0.00,,OVC,0.00,VWS V14.00,2013-10-03 14:27:00,
2013-10-03 09:32:00,75.7,73.8,30.05,NNE,15,1.0,4.0,94,0.00,,OVC,0.00,VWS V14.00,2013-10-03 14:32:00,
2013-10-03 09:37:00,76.2,74.3,30.05,ENE,57,0.0,4.0,94,0.00,,OVC,0.00,VWS V14.00,2013-10-03 14:37:00,
2013-10-03 09:42:00,76.8,74.6,30.05,South,173,0.0,4.0,93,0.00,,OVC,0.00,VWS V14.00,2013-10-03 14:42:00,
2013-10-03 09:47:00,77.2,75.0,30.05,SSW,205,1.0,1.0,93,0.00,,OVC,0.00,VWS V14.00,2013-10-03 14:47:00,
2013-10-03 09:52:00,77.4,74.9,30.05,NNW,340,0.0,2.0,92,0.00,,OVC,0.00,VWS V14.00,2013-10-03 14:52:00,
2013-10-03 09:57:00,77.6,75.1,30.05,NE,51,0.0,3.0,92,0.00,,OVC,0.00,VWS V14.00,2013-10-03 14:57:00,
2013-10-03 10:02:00,78.0,75.2,30.05,North,5,1.0,2.0,91,0.00,,OVC,0.00,VWS V14.00,2013-10-03 15:02:00,
2013-10-03 10:07:00,78.3,75.1,30.05,NNE,31,2.0,2.0,90,0.00,,OVC,0.00,VWS V14.00,2013-10-03 15:07:00,
2013-10-03 10:12:00,78.7,75.5,30.05,ESE,108,0.0,2.0,90,0.00,,OVC,0.00,VWS V14.00,2013-10-03 15:12:00,
2013-10-03 10:17:00,79.1,75.6,30.05,SSE,162,0.0,0.0,89,0.00,,OVC,0.00,VWS V14.00,2013-10-03 15:17:00,
2013-10-03 10:22:00,79.3,75.4,30.05,West,270,0.0,0.0,88,0.00,,OVC,0.00,VWS V14.00,2013-10-03 15:22:00,
2013-10-03 10:27:00,79.4,75.2,30.05,SW,229,0.0,1.0,87,0.00,,OVC,0.00,VWS V14.00,2013-10-03 15:27:00,
2013-10-03 10:32:00,79.6,75.4,30.05,SW,230,0.0,0.0,87,0.00,,OVC,0.00,VWS V14.00,2013-10-03 15:32:00,
2013-10-03 10:37:00,79.7,75.5,30.05,West,263,0.0,2.0,87,0.00,,OVC,0.00,VWS V14.00,2013-10-03 15:37:00,
2013-10-03 10:42:00,79.8,75.2,30.05,North,5,0.0,2.0,86,0.00,,OVC,0.00,VWS V14.00,2013-10-03 15:42:00,
2013-10-03 10:47:00,80.0,75.4,30.05,NNE,30,0.0,0.0,86,0.00,,OVC,0.00,VWS V14.00,2013-10-03 15:47:00,
2013-10-03 10:52:00,80.1,75.5,30.05,East,101,0.0,0.0,86,0.00,,OVC,0.00,VWS V14.00,2013-10-03 15:52:00,
2013-10-03 10:57:00,80.1,75.5,30.05,NE,44,0.0,0.0,86,0.00,,OVC,0.00,VWS V14.00,2013-10-03 15:57:00,
2013-10-03 11:02:00,80.3,75.7,30.05,WNW,300,0.0,1.0,86,0.00,,OVC,0.00,VWS V14.00,2013-10-03 16:02:00,
2013-10-03 11:07:00,80.5,75.9,30.05,WNW,298,0.0,4.0,86,0.00,,OVC,0.00,VWS V14.00,2013-10-03 16:07:00,
2013-10-03 11:12:00,80.7,76.1,30.04,SSE,149,0.0,0.0,86,0.00,,OVC,0.00,VWS V14.00,2013-10-03 16:12:00,
2013-10-03 11:17:00,81.1,76.2,30.04,East,96,2.0,6.0,85,0.00,,OVC,0.00,VWS V14.00,2013-10-03 16:17:00,
2013-10-03 11:22:00,81.5,75.8,30.04,NNW,331,1.0,2.0,83,0.00,,OVC,0.00,VWS V14.00,2013-10-03 16:22:00,
2013-10-03 11:27:00,82.0,76.0,30.04,ENE,65,3.0,4.0,82,0.00,,OVC,0.00,VWS V14.00,2013-10-03 16:27:00,
2013-10-03 11:32:00,82.6,76.6,30.04,SSE,163,2.0,3.0,82,0.00,,OVC,0.00,VWS V14.00,2013-10-03 16:32:00,
2013-10-03 11:37:00,83.3,76.5,30.03,NE,34,3.0,5.0,80,0.00,,OVC,0.00,VWS V14.00,2013-10-03 16:37:00,
2013-10-03 11:42:00,83.7,76.5,30.04,ESE,103,2.0,7.0,79,0.00,,OVC,0.00,VWS V14.00,2013-10-03 16:42:00,
2013-10-03 11:47:00,83.7,76.1,30.03,SW,236,0.0,3.0,78,0.00,,OVC,0.00,VWS V14.00,2013-10-03 16:47:00,
2013-10-03 11:52:00,83.7,76.5,30.03,East,86,0.0,2.0,79,0.00,,OVC,0.00,VWS V14.00,2013-10-03 16:52:00,
2013-10-03 11:57:00,83.9,75.9,30.03,NNW,332,0.0,1.0,77,0.00,,OVC,0.00,VWS V14.00,2013-10-03 16:57:00,
2013-10-03 12:02:00,83.8,75.8,30.03,NW,321,1.0,4.0,77,0.00,,OVC,0.00,VWS V14.00,2013-10-03 17:02:00,
2013-10-03 12:07:00,83.7,75.7,30.03,NNE,20,1.0,3.0,77,0.00,,OVC,0.00,VWS V14.00,2013-10-03 17:07:00,
2013-10-03 12:12:00,83.8,75.8,30.03,SW,232,0.0,4.0,77,0.00,,OVC,0.00,VWS V14.00,2013-10-03 17:12:00,
2013-10-03 12:17:00,83.9,75.9,30.03,SSW,200,1.0,9.0,77,0.00,,OVC,0.00,VWS V14.00,2013-10-03 17:17:00,
2013-10-03 12:22:00,84.0,76.4,30.03,SSE,163,0.0,0.0,78,0.00,,OVC,0.00,VWS V14.00,2013-10-03 17:22:00,
2013-10-03 12:27:00,84.1,76.1,30.03,North,5,1.0,2.0,77,0.00,,OVC,0.00,VWS V14.00,2013-10-03 17:27:00,
2013-10-03 12:32:00,84.3,76.3,30.03,South,170,0.0,3.0,77,0.00,,OVC,0.00,VWS V14.00,2013-10-03 17:32:00,
2013-10-03 12:37:00,84.2,75.8,30.03,WNW,296,2.0,6.0,76,0.00,,OVC,0.00,VWS V14.00,2013-10-03 17:37:00,
2013-10-03 12:42:00,84.1,75.7,30.03,NNW,330,3.0,4.0,76,0.01,,OVC,0.01,VWS V14.00,2013-10-03 17:42:00,
2013-10-03 12:47:00,84.2,76.2,30.03,SW,232,4.0,4.0,77,0.01,,OVC,0.01,VWS V14.00,2013-10-03 17:47:00,
2013-10-03 12:52:00,84.1,76.1,30.03,SSW,205,0.0,2.0,77,0.01,,OVC,0.01,VWS V14.00,2013-10-03 17:52:00,
2013-10-03 12:57:00,84.4,76.0,30.02,SE,141,1.0,3.0,76,0.01,,OVC,0.01,VWS V14.00,2013-10-03 17:57:00,
2013-10-03 13:02:00,84.2,75.4,30.02,WSW,257,2.0,2.0,75,0.01,,OVC,0.01,VWS V14.00,2013-10-03 18:02:00,
2013-10-03 13:07:00,84.1,75.7,30.02,West,265,1.0,10.0,76,0.01,,OVC,0.01,VWS V14.00,2013-10-03 18:07:00,
2013-10-03 13:12:00,83.7,74.9,30.02,SSE,157,2.0,6.0,75,0.01,,OVC,0.01,VWS V14.00,2013-10-03 18:12:00,
2013-10-03 13:17:00,83.7,76.1,30.01,WNW,298,1.0,2.0,78,0.01,,OVC,0.01,VWS V14.00,2013-10-03 18:17:00,
2013-10-03 13:22:00,83.9,75.5,30.01,SSE,165,0.0,3.0,76,0.01,,OVC,0.01,VWS V14.00,2013-10-03 18:22:00,
2013-10-03 13:27:00,83.8,75.8,30.01,WSW,247,3.0,4.0,77,0.01,,OVC,0.01,VWS V14.00,2013-10-03 18:27:00,
2013-10-03 13:32:00,83.7,75.7,30.01,SSW,196,1.0,2.0,77,0.01,,OVC,0.01,VWS V14.00,2013-10-03 18:32:00,
2013-10-03 13:37:00,83.4,75.1,30.01,SSW,203,0.0,2.0,76,0.01,,OVC,0.01,VWS V14.00,2013-10-03 18:37:00,
2013-10-03 13:42:00,83.2,75.2,30.01,SSE,165,0.0,0.0,77,0.01,,OVC,0.01,VWS V14.00,2013-10-03 18:42:00,
2013-10-03 13:48:00,82.8,74.9,30.00,NNE,16,1.0,4.0,77,0.00,,OVC,0.01,VWS V14.00,2013-10-03 18:48:00,
2013-10-03 13:53:00,82.5,74.9,30.00,NNE,24,3.0,4.0,78,0.00,,OVC,0.01,VWS V14.00,2013-10-03 18:53:00,
2013-10-03 13:58:00,82.2,74.7,30.00,North,360,0.0,3.0,78,0.00,,OVC,0.01,VWS V14.00,2013-10-03 18:58:00,
2013-10-03 14:03:00,81.9,74.8,30.00,WSW,257,0.0,3.0,79,0.00,,OVC,0.01,VWS V14.00,2013-10-03 19:03:00,
2013-10-03 14:08:00,81.9,74.8,30.00,SW,231,1.0,2.0,79,0.00,,OVC,0.01,VWS V14.00,2013-10-03 19:08:00,
2013-10-03 14:13:00,81.9,75.1,30.00,East,87,2.0,3.0,80,0.00,,OVC,0.01,VWS V14.00,2013-10-03 19:13:00,
2013-10-03 14:19:00,81.9,75.1,30.00,NNW,332,1.0,3.0,80,0.00,,OVC,0.01,VWS V14.00,2013-10-03 19:19:00,
2013-10-03 14:24:00,81.9,75.1,30.00,NNW,332,1.0,3.0,80,0.00,,OVC,0.01,VWS V14.00,2013-10-03 19:24:00,
2013-10-03 14:29:00,82.1,74.9,30.00,West,267,1.0,3.0,79,0.00,,OVC,0.01,VWS V14.00,2013-10-03 19:29:00,
2013-10-03 14:35:00,82.1,74.9,30.00,SE,134,1.0,5.0,79,0.00,,OVC,0.01,VWS V14.00,2013-10-03 19:35:00,
2013-10-03 14:40:00,82.0,74.8,30.00,WSW,249,0.0,4.0,79,0.00,,OVC,0.01,VWS V14.00,2013-10-03 19:40:00,
2013-10-03 14:45:00,81.9,75.1,30.00,South,183,2.0,7.0,80,0.00,,OVC,0.01,VWS V14.00,2013-10-03 19:45:00,
2013-10-03 14:50:00,81.8,75.0,30.00,WSW,254,1.0,3.0,80,0.00,,OVC,0.01,VWS V14.00,2013-10-03 19:50:00,
2013-10-03 14:55:00,81.5,74.7,30.00,South,181,0.0,3.0,80,0.00,,OVC,0.01,VWS V14.00,2013-10-03 19:55:00,
2013-10-03 15:00:00,81.2,74.4,30.00,SSE,163,1.0,3.0,80,0.00,,OVC,0.01,VWS V14.00,2013-10-03 20:00:00,
2013-10-03 15:05:00,80.8,74.4,30.00,SW,235,2.0,3.0,81,0.00,,OVC,0.01,VWS V14.00,2013-10-03 20:05:00,
2013-10-03 15:10:00,80.6,74.6,30.00,West,281,0.0,0.0,82,0.00,,OVC,0.01,VWS V14.00,2013-10-03 20:10:00,
2013-10-03 15:15:00,80.4,74.4,30.00,SE,135,1.0,4.0,82,0.00,,OVC,0.01,VWS V14.00,2013-10-03 20:15:00,
2013-10-03 15:20:00,80.2,74.2,30.00,NE,44,1.0,2.0,82,0.00,,OVC,0.01,VWS V14.00,2013-10-03 20:20:00,
2013-10-03 15:25:00,80.0,74.0,30.00,NNE,20,0.0,1.0,82,0.00,,OVC,0.01,VWS V14.00,2013-10-03 20:25:00,
2013-10-03 15:30:00,79.9,74.3,30.00,WSW,239,0.0,0.0,83,0.00,,OVC,0.01,VWS V14.00,2013-10-03 20:30:00,
2013-10-03 15:35:00,79.8,74.2,30.00,SSE,159,0.0,3.0,83,0.00,,OVC,0.01,VWS V14.00,2013-10-03 20:35:00,
2013-10-03 15:40:00,79.6,74.0,29.99,SSW,196,0.0,1.0,83,0.00,,OVC,0.01,VWS V14.00,2013-10-03 20:40:00,
2013-10-03 15:45:00,79.5,73.9,29.99,SSW,199,0.0,5.0,83,0.00,,OVC,0.01,VWS V14.00,2013-10-03 20:45:00,
2013-10-03 15:50:00,79.4,73.8,29.99,SSW,206,0.0,0.0,83,0.00,,OVC,0.01,VWS V14.00,2013-10-03 20:50:00,
2013-10-03 15:55:00,79.3,74.1,29.98,SSW,192,0.0,3.0,84,0.00,,OVC,0.01,VWS V14.00,2013-10-03 20:55:00,
2013-10-03 16:00:00,79.1,73.8,29.99,WSW,248,0.0,0.0,84,0.00,,OVC,0.01,VWS V14.00,2013-10-03 21:00:00,
2013-10-03 16:05:00,79.0,73.8,29.98,NNW,340,2.0,2.0,84,0.00,,OVC,0.01,VWS V14.00,2013-10-03 21:05:00,
2013-10-03 16:10:00,78.9,73.7,29.98,NNW,337,2.0,3.0,84,0.00,,OVC,0.01,VWS V14.00,2013-10-03 21:10:00,
2013-10-03 16:15:00,78.7,73.5,29.99,SE,137,0.0,3.0,84,0.00,,OVC,0.01,VWS V14.00,2013-10-03 21:15:00,
2013-10-03 16:20:00,78.7,73.8,29.98,SE,142,0.0,0.0,85,0.00,,OVC,0.01,VWS V14.00,2013-10-03 21:20:00,
2013-10-03 16:25:00,78.6,73.7,29.98,ESE,114,0.0,2.0,85,0.00,,OVC,0.01,VWS V14.00,2013-10-03 21:25:00,
2013-10-03 16:30:00,78.5,73.6,29.98,ENE,69,0.0,3.0,85,0.00,,OVC,0.01,VWS V14.00,2013-10-03 21:30:00,
2013-10-03 16:35:00,78.4,73.5,29.98,ESE,115,1.0,2.0,85,0.00,,OVC,0.01,VWS V14.00,2013-10-03 21:35:00,
2013-10-03 16:40:00,78.4,73.9,29.99,NNW,330,0.0,3.0,86,0.00,,OVC,0.01,VWS V14.00,2013-10-03 21:40:00,
2013-10-03 16:45:00,78.2,73.7,30.00,East,99,0.0,4.0,86,0.00,,OVC,0.01,VWS V14.00,2013-10-03 21:45:00,
2013-10-03 16:50:00,78.2,73.7,29.99,SE,130,0.0,0.0,86,0.00,,OVC,0.01,VWS V14.00,2013-10-03 21:50:00,
2013-10-03 16:55:00,78.2,73.7,29.99,SE,132,0.0,0.0,86,0.00,,OVC,0.01,VWS V14.00,2013-10-03 21:55:00,
2013-10-03 17:00:00,78.2,73.7,29.99,WSW,245,0.0,2.0,86,0.00,,OVC,0.01,VWS V14.00,2013-10-03 22:00:00,
2013-10-03 17:05:00,78.1,73.9,29.99,East,82,0.0,0.0,87,0.00,,OVC,0.01,VWS V14.00,2013-10-03 22:05:00,
2013-10-03 17:10:00,78.0,73.8,29.98,NE,42,0.0,0.0,87,0.00,,OVC,0.01,VWS V14.00,2013-10-03 22:10:00,
2013-10-03 17:15:00,77.8,73.6,29.98,NE,42,0.0,0.0,87,0.00,,OVC,0.01,VWS V14.00,2013-10-03 22:15:00,
2013-10-03 17:20:00,77.7,73.5,29.99,NE,43,0.0,0.0,87,0.00,,OVC,0.01,VWS V14.00,2013-10-03 22:20:00,
2013-10-03 17:25:00,77.6,73.8,29.99,NE,54,0.0,0.0,88,0.00,,OVC,0.01,VWS V14.00,2013-10-03 22:25:00,
2013-10-03 17:30:00,77.5,73.7,30.00,South,178,0.0,0.0,88,0.00,,OVC,0.01,VWS V14.00,2013-10-03 22:30:00,
2013-10-03 17:35:00,77.4,73.6,30.00,South,185,0.0,0.0,88,0.00,,OVC,0.01,VWS V14.00,2013-10-03 22:35:00,
2013-10-03 17:40:00,77.3,73.5,30.00,SSW,198,0.0,1.0,88,0.00,,OVC,0.01,VWS V14.00,2013-10-03 22:40:00,
2013-10-03 17:45:00,77.2,73.4,30.00,NNW,332,0.0,0.0,88,0.00,,OVC,0.01,VWS V14.00,2013-10-03 22:45:00,
2013-10-03 17:50:00,77.1,73.3,29.99,South,169,0.0,0.0,88,0.00,,OVC,0.01,VWS V14.00,2013-10-03 22:50:00,
2013-10-03 17:55:00,77.0,73.2,29.99,SSW,197,0.0,0.0,88,0.00,,OVC,0.01,VWS V14.00,2013-10-03 22:55:00,
2013-10-03 18:00:00,76.9,73.4,29.98,SW,216,1.0,2.0,89,0.00,,OVC,0.01,VWS V14.00,2013-10-03 23:00:00,
2013-10-03 18:05:00,76.8,73.3,29.98,SW,221,0.0,2.0,89,0.00,,OVC,0.01,VWS V14.00,2013-10-03 23:05:00,
2013-10-03 18:10:00,76.7,73.2,29.98,WNW,283,2.0,2.0,89,0.00,,OVC,0.01,VWS V14.00,2013-10-03 23:10:00,
2013-10-03 18:15:00,76.7,73.2,29.98,NW,320,3.0,3.0,89,0.00,,OVC,0.01,VWS V14.00,2013-10-03 23:15:00,
2013-10-03 18:20:00,76.7,73.2,29.99,SE,126,0.0,2.0,89,0.00,,OVC,0.01,VWS V14.00,2013-10-03 23:20:00,
2013-10-03 18:25:00,76.7,73.2,29.99,SE,134,0.0,0.0,89,0.00,,OVC,0.01,VWS V14.00,2013-10-03 23:25:00,
2013-10-03 18:30:00,76.7,73.2,29.99,North,355,2.0,3.0,89,0.00,,OVC,0.01,VWS V14.00,2013-10-03 23:30:00,
2013-10-03 18:35:00,76.7,73.2,29.99,SE,146,2.0,2.0,89,0.00,,OVC,0.01,VWS V14.00,2013-10-03 23:35:00,
2013-10-03 18:40:00,76.7,73.2,29.99,SE,136,0.0,0.0,89,0.00,,OVC,0.01,VWS V14.00,2013-10-03 23:40:00,
2013-10-03 18:45:00,76.6,73.1,29.99,SE,138,0.0,0.0,89,0.00,,OVC,0.01,VWS V14.00,2013-10-03 23:45:00,
2013-10-03 18:50:00,76.6,73.1,29.98,SE,146,0.0,2.0,89,0.00,,OVC,0.01,VWS V14.00,2013-10-03 23:50:00,
2013-10-03 18:55:00,76.5,73.0,29.98,South,172,0.0,0.0,89,0.00,,OVC,0.01,VWS V14.00,2013-10-03 23:55:00,
2013-10-03 19:00:00,76.4,72.9,29.99,NE,44,0.0,0.0,89,0.00,,OVC,0.01,VWS V14.00,2013-10-04 00:00:00,
2013-10-03 19:05:00,76.4,72.9,29.99,NNE,20,2.0,2.0,89,0.00,,OVC,0.01,VWS V14.00,2013-10-04 00:05:00,
2013-10-03 19:10:00,76.4,72.9,29.99,NNE,20,0.0,0.0,89,0.00,,OVC,0.01,VWS V14.00,2013-10-04 00:10:00,
2013-10-03 19:15:00,76.4,72.9,30.00,NNE,20,0.0,0.0,89,0.00,,OVC,0.01,VWS V14.00,2013-10-04 00:15:00,
2013-10-03 19:20:00,76.4,72.9,30.00,NNE,19,0.0,0.0,89,0.00,,OVC,0.01,VWS V14.00,2013-10-04 00:20:00,
2013-10-03 19:25:00,76.4,72.9,30.00,NNE,24,0.0,0.0,89,0.00,,OVC,0.01,VWS V14.00,2013-10-04 00:25:00,
2013-10-03 19:30:00,76.4,72.9,30.00,NNE,24,0.0,0.0,89,0.00,,OVC,0.01,VWS V14.00,2013-10-04 00:30:00,
2013-10-03 19:35:00,76.3,72.8,30.00,NNE,26,0.0,0.0,89,0.00,,OVC,0.01,VWS V14.00,2013-10-04 00:35:00,
2013-10-03 19:40:00,76.3,72.8,30.00,NNE,26,0.0,0.0,89,0.00,,OVC,0.01,VWS V14.00,2013-10-04 00:40:00,
2013-10-03 19:45:00,76.3,72.8,30.00,NNE,25,0.0,0.0,89,0.00,,OVC,0.01,VWS V14.00,2013-10-04 00:45:00,
2013-10-03 19:50:00,76.3,72.8,30.01,NNE,25,0.0,0.0,89,0.00,,OVC,0.01,VWS V14.00,2013-10-04 00:50:00,
2013-10-03 19:55:00,76.2,72.7,30.01,NNE,15,0.0,1.0,89,0.00,,OVC,0.01,VWS V14.00,2013-10-04 00:55:00,
2013-10-03 20:00:00,76.2,73.1,30.01,NNE,14,0.0,0.0,90,0.00,,OVC,0.01,VWS V14.00,2013-10-04 01:00:00,
2013-10-03 20:05:00,76.2,73.1,30.01,NE,38,0.0,0.0,90,0.00,,OVC,0.01,VWS V14.00,2013-10-04 01:05:00,
2013-10-03 20:10:00,76.1,73.0,30.01,NE,38,0.0,0.0,90,0.00,,OVC,0.01,VWS V14.00,2013-10-04 01:10:00,
2013-10-03 20:15:00,76.1,73.0,30.01,NE,38,0.0,0.0,90,0.00,,OVC,0.01,VWS V14.00,2013-10-04 01:15:00,
2013-10-03 20:20:00,76.1,73.0,30.01,NE,38,0.0,0.0,90,0.00,,OVC,0.01,VWS V14.00,2013-10-04 01:20:00,
2013-10-03 20:25:00,76.1,73.0,30.01,NNE,25,0.0,1.0,90,0.00,,OVC,0.01,VWS V14.00,2013-10-04 01:25:00,
2013-10-03 20:30:00,76.2,73.1,30.01,NNE,25,0.0,0.0,90,0.00,,OVC,0.01,VWS V14.00,2013-10-04 01:30:00,
2013-10-03 20:35:00,76.2,73.1,30.01,NNW,329,0.0,1.0,90,0.00,,OVC,0.01,VWS V14.00,2013-10-04 01:35:00,
2013-10-03 20:40:00,76.2,73.1,30.01,WNW,288,0.0,2.0,90,0.00,,OVC,0.01,VWS V14.00,2013-10-04 01:40:00,
2013-10-03 20:45:00,76.3,73.2,30.01,WSW,255,0.0,0.0,90,0.00,,OVC,0.01,VWS V14.00,2013-10-04 01:45:00,
2013-10-03 20:50:00,76.3,73.2,30.01,WSW,254,0.0,0.0,90,0.00,,OVC,0.01,VWS V14.00,2013-10-04 01:50:00,
2013-10-03 20:55:00,76.3,73.2,30.01,WSW,254,0.0,0.0,90,0.00,,OVC,0.01,VWS V14.00,2013-10-04 01:55:00,
2013-10-03 21:00:00,76.3,72.8,30.01,South,188,1.0,5.0,89,0.00,,OVC,0.01,VWS V14.00,2013-10-04 02:00:00,
2013-10-03 21:05:00,76.3,72.8,30.02,ESE,121,4.0,4.0,89,0.00,,OVC,0.01,VWS V14.00,2013-10-04 02:05:00,
2013-10-03 21:10:00,76.4,72.9,30.02,SE,134,2.0,2.0,89,0.00,,OVC,0.01,VWS V14.00,2013-10-04 02:10:00,
2013-10-03 21:15:00,76.5,73.0,30.02,SE,139,2.0,3.0,89,0.00,,OVC,0.01,VWS V14.00,2013-10-04 02:15:00,
2013-10-03 21:20:00,76.6,73.1,30.03,SSW,197,1.0,3.0,89,0.00,,OVC,0.01,VWS V14.00,2013-10-04 02:20:00,
2013-10-03 21:25:00,76.7,73.2,30.03,SSW,205,2.0,3.0,89,0.00,,OVC,0.01,VWS V14.00,2013-10-04 02:25:00,
2013-10-03 21:30:00,76.8,73.3,30.03,SW,227,0.0,2.0,89,0.00,,OVC,0.01,VWS V14.00,2013-10-04 02:30:00,
2013-10-03 21:35:00,76.8,73.3,30.03,SSW,211,1.0,2.0,89,0.00,,OVC,0.01,VWS V14.00,2013-10-04 02:35:00,
2013-10-03 21:40:00,76.8,73.3,30.03,SSW,211,0.0,0.0,89,0.00,,OVC,0.01,VWS V14.00,2013-10-04 02:40:00,
2013-10-03 21:45:00,76.8,73.3,30.03,SSW,194,0.0,0.0,89,0.00,,OVC,0.01,VWS V14.00,2013-10-04 02:45:00,
2013-10-03 21:50:00,76.9,73.4,30.03,SE,131,2.0,2.0,89,0.00,,OVC,0.01,VWS V14.00,2013-10-04 02:50:00,
2013-10-03 21:55:00,76.9,73.4,30.04,SE,125,1.0,3.0,89,0.00,,OVC,0.01,VWS V14.00,2013-10-04 02:55:00,
2013-10-03 22:00:00,76.6,72.8,30.03,WSW,255,0.0,0.0,88,0.00,,OVC,0.01,VWS V14.00,2013-10-04 03:00:00,
2013-10-03 22:05:00,76.4,72.6,30.04,ESE,109,0.0,0.0,88,0.00,,OVC,0.01,VWS V14.00,2013-10-04 03:05:00,
2013-10-03 22:10:00,76.3,72.8,30.03,WSW,240,0.0,0.0,89,0.00,,OVC,0.01,VWS V14.00,2013-10-04 03:10:00,
2013-10-03 22:15:00,76.3,72.8,30.03,SW,230,0.0,0.0,89,0.00,,OVC,0.01,VWS V14.00,2013-10-04 03:15:00,
2013-10-03 22:20:00,76.4,72.9,30.04,SSE,162,3.0,10.0,89,0.00,,OVC,0.01,VWS V14.00,2013-10-04 03:20:00,
2013-10-03 22:25:00,76.1,72.6,30.04,South,177,2.0,2.0,89,0.00,,OVC,0.01,VWS V14.00,2013-10-04 03:25:00,
2013-10-03 22:30:00,75.7,72.2,30.04,South,190,2.0,6.0,89,0.00,,OVC,0.01,VWS V14.00,2013-10-04 03:30:00,
2013-10-03 22:35:00,75.4,72.3,30.04,SSE,168,3.0,4.0,90,0.00,,OVC,0.01,VWS V14.00,2013-10-04 03:35:00,
2013-10-03 22:40:00,75.2,72.1,30.04,SSW,200,1.0,4.0,90,0.00,,OVC,0.01,VWS V14.00,2013-10-04 03:40:00,
2013-10-03 22:45:00,75.1,72.0,30.04,SSW,201,1.0,2.0,90,0.00,,OVC,0.01,VWS V14.00,2013-10-04 03:45:00,
2013-10-03 22:50:00,75.0,72.2,30.04,SSE,167,2.0,4.0,91,0.00,,OVC,0.01,VWS V14.00,2013-10-04 03:50:00,
2013-10-03 22:55:00,74.8,72.0,30.05,SSE,165,2.0,3.0,91,0.00,,OVC,0.01,VWS V14.00,2013-10-04 03:55:00,
2013-10-03 23:00:00,74.7,71.9,30.05,SSE,167,2.0,2.0,91,0.00,,OVC,0.01,VWS V14.00,2013-10-04 04:00:00,
2013-10-03 23:32:00,74.3,71.5,30.03,South,187,0.0,0.0,91,0.00,,OVC,0.01,VWS V14.00,2013-10-04 04:32:00,
2013-10-03 23:34:00,74.3,71.5,30.03,South,187,0.0,0.0,91,0.00,,OVC,0.01,VWS V14.00,2013-10-04 04:34:00,
2013-10-03 23:35:00,74.3,71.5,30.03,South,187,0.0,0.0,91,0.00,,OVC,0.01,VWS V14.00,2013-10-04 04:35:00,
2013-10-03 23:38:00,74.3,71.5,30.03,South,187,0.0,0.0,91,0.00,,OVC,0.01,VWS V14.00,2013-10-04 04:38:00,
2013-10-03 23:39:00,74.3,71.5,30.03,South,187,0.0,0.0,91,0.00,,OVC,0.01,VWS V14.00,2013-10-04 04:39:00,
2013-10-03 23:43:00,74.2,71.4,30.03,South,187,0.0,0.0,91,0.00,,OVC,0.01,VWS V14.00,2013-10-04 04:43:00,
2013-10-03 23:46:00,74.2,71.4,30.02,South,187,0.0,0.0,91,0.00,,OVC,0.01,VWS V14.00,2013-10-04 04:46:00,
2013-10-03 23:47:00,74.2,71.4,30.02,South,187,0.0,0.0,91,0.00,,OVC,0.01,VWS V14.00,2013-10-04 04:47:00,
2013-10-03 23:49:00,74.2,71.4,30.02,South,187,0.0,0.0,91,0.00,,OVC,0.01,VWS V14.00,2013-10-04 04:49:00,
2013-10-03 23:53:00,74.3,71.5,30.01,South,187,0.0,0.0,91,0.00,,OVC,0.01,VWS V14.00,2013-10-04 04:53:00,
2013-10-03 23:58:00,74.2,71.4,30.01,South,187,0.0,0.0,91,0.00,,OVC,0.01,VWS V14.00,2013-10-04 04:58:00,